Regional Weather Roundup
Issued by NWS

Home | Current Version | Previous Version | Text Only | Print | Product List | Glossary Off
Versions: 1 2 3 4 5 6 7 8 9 10 11 12 13 14 15 16 17 18 19 20 21 22 23 24 25 26 27 28 29 30 31 32 33 34 35 36 37 38 39 40 41 42 43 44 45 46 47 48 49 50

488
ASUS43 KMPX 141810
RWRMN
WEATHER ROUNDUP FOR MINNESOTA
NATIONAL WEATHER SERVICE TWIN CITIES/CHANHASSEN MN
1200 PM CST THU DEC 14 2017


NOTE: "FAIR" INDICATES FEW OR NO CLOUDS BELOW 12,000 FEET WITH NO
SIGNIFICANT WEATHER AND/OR OBSTRUCTIONS TO VISIBILITY. N/A MEANS
CURRENT SKY AND/OR WEATHER CONDITIONS ARE NOT AVAILABLE.

MNZ060>063-068>070-141900-
   Twin Cities Metro

CITY           SKY/WX    TMP DP  RH WIND       PRES   REMARKS
TWIN CITIES    CLOUDY    21  16  81 W6        30.04F WCI  13
6HR MIN TEMP:  15; 6HR MAX TEMP:  21; 6HR PCP: TRACE;

ST PAUL        CLOUDY    21  16  81 SW7       30.05F WCI  12
CRYSTAL        CLOUDY    21  13  71 W7        30.03S WCI  12
BLAINE         CLOUDY    21  18  86 W6        30.03S WCI  14
LAKEVILLE      CLOUDY    19  16  86 W7        30.03F WCI  10
EDEN PRAIRIE   CLOUDY    20  14  77 W3        30.03F
6HR MIN TEMP:  13; 6HR MAX TEMP:  20; 6HR PCP: TRACE;

SOUTH ST PAUL  CLOUDY    22  16  76 W6        30.04F WCI  15
LAKE ELMO      CLOUDY    21  18  86 W9        30.04S WCI  11
$$
MNZ001>005-007-008-013>017-022>024-027-028-141900-
   Northwest Minnesota

CITY           SKY/WX    TMP DP  RH WIND       PRES   REMARKS
BEMIDJI        LGT SNOW  16  12  85 NW12      29.98S WCI   3
HALLOCK        CLOUDY    16  12  86 N13       30.07F WCI   2
ROSEAU         LGT SNOW  14   9  79 NW10      30.02S WCI   1
WARROAD        LGT SNOW  12   9  85 NW8       30.01F WCI   1
THIEF RVR FALL LGT SNOW  16  12  86 NW20      30.04S FOG     WCI  -1
CROOKSTON      CLOUDY    19  16  86 N15       30.08S WCI   5
FOSSTON        LGT SNOW  18  12  79 NW13      30.01F WCI   4
DETROIT LAKES  FLURRIES  21  18  86 NW13      30.03S WCI   9
MOORHEAD       CLOUDY    23  18  80 N12       30.08S WCI  12
PARK RAPIDS    LGT SNOW  19  13  77 NW10      29.98F WCI   7
MAHNOMEN       LGT SNOW  19  16  88 NW16      30.02F WCI   4
$$
MNZ006-009>011-018-025>026-141900-
   North Central Minnesota

CITY           SKY/WX    TMP DP  RH WIND       PRES   REMARKS
BAUDETTE       PTSUNNY   10   6  84 NW10      29.97F WCI  -4
FLAG ISLAND    FLURRIES  10   7  85 NW12      29.97F WCI  -4
INTL FALLS     CLOUDY    14   7  73 W9        29.95F HAZE    WCI   2
6HR MIN TEMP:  10; 6HR MAX TEMP:  15; 6HR PCP:  0.01;

WASKISH        FLURRIES  14  10  85 NW8       29.99S WCI   3
BIG FORK       LGT SNOW  16  10  79 W5        29.95F WCI   9
LONGVILLE      FLURRIES  18  12  79 NW7       29.98F WCI   8
GRAND RAPIDS   LGT SNOW  18  10  71 NW9       29.98S WCI   7
CRANE LAKE     FLURRIES  14   9  79 W3        29.97S
ORR            FLURRIES  14   7  73 W3        29.92S
COOK           FLURRIES  14   9  79 W7        29.94F WCI   4
WALKER         LGT SNOW  16  12  84 NW9G17    29.98S WCI   5
$$
MNZ012-019>021-037-141900-
   Northeast Minnesota

CITY           SKY/WX    TMP DP  RH WIND       PRES   REMARKS
DULUTH         LGT SNOW  16  10  77 W12       29.93F WCI   3
6HR MIN TEMP:  14; 6HR MAX TEMP:  16; 6HR PCP: TRACE;

ELY            FLURRIES  14   9  79 W6        29.91F WCI   5
HIBBING        LGT SNOW  13   7  77 NW9       29.94F WCI   1
EVELETH        LGT SNOW  14   5  68 NW8       29.94F WCI   2
DULUTH HARBOR  FLURRIES  19  16  86 SW7       30.00F WCI  10
TWO HARBORS    LGT SNOW  23  16  74 W5        29.93F WCI  17
SILVER BAY     PTSUNNY   19  14  79 SW3       29.92F
GRAND MARAIS     N/A     20  12  71 SW5       29.96F WCI  13
G MARAIS ARPRT LGT SNOW  12   7  79 CALM      29.86F
$$
MNZ029>031-032-039>041-046>048-054>057-064-141900-
   West Central Minnesota

CITY           SKY/WX    TMP DP  RH WIND       PRES   REMARKS
FERGUS FALLS   FLURRIES  21  19  93 NW10      30.08F WCI  10
WHEATON        LGT SNOW  25  19  80 NW7       30.09F WCI  17
MORRIS         CLOUDY    25  19  80 NW8       30.04F WCI  16
ALEXANDRIA     CLOUDY    21  16  81 NW10      30.02F WCI  10
ELBOW LAKE     FLURRIES  21  19  92 NW10      30.05S WCI  10
WADENA         LGT SNOW  19  16  86 W7        30.00F WCI  10
GLENWOOD       CLOUDY    21  18  86 NW12      30.02F WCI   9
APPLETON         N/A     27  19  74 N6        30.06F WCI  20
BENSON         CLOUDY    25  18  74 N9        30.06S WCI  15
ORTONVILLE     CLOUDY    25  19  80 CALM      30.06S
MADISON        LGT SNOW  28  23  80 NW5       30.06F WCI  23
WILLMAR        CLOUDY    23  19  86 NW12      30.04F WCI  12
$$
MNZ033>034-036-042>043-049>051-058-059-141900-
   Central Minnesota

CITY           SKY/WX    TMP DP  RH WIND       PRES   REMARKS
ST CLOUD       LGT SNOW  20  16  84 NW6       30.02F FOG     WCI  12
6HR MIN TEMP:  15; 6HR MAX TEMP:  20; 6HR PCP:  0.01;

SAUK CENTRE    FAIR      19  14  81 NW9       30.02S WCI   8
PAYNESVILLE    CLOUDY    20  17  88 NW7       30.02F WCI  11
AITKIN         FLURRIES  16  10  79 W6        29.97F WCI   7
PINE RIVER     FLURRIES  16  10  79 NW7       30.02F WCI   6
BRAINERD       LGT SNOW  18  12  77 W9        30.00F WCI   7
STAPLES        LGT SNOW  18  14  86 NW6       30.00F WCI   9
LONG PRAIRIE   PTSUNNY   19  14  79 W9        30.01F WCI   9
LITTLE FALLS   CLOUDY    19  10  68 W7        30.02S WCI  10
LITCHFIELD     CLOUDY    21  19  93 NW7       30.04S WCI  13
BUFFALO        CLOUDY    20  16  83 W8        30.04S WCI  11
MAPLE LAKE     CLOUDY    22  18  87 W6        30.04S WCI  14
HUTCHINSON     CLOUDY    21  18  88 NW10      30.04S WCI  10
$$
MNZ037-044-045-052-053-141900-
   East Central Minnesota

CITY           SKY/WX    TMP DP  RH WIND       PRES   REMARKS
PRINCETON      LGT SNOW  21  18  86 W3        30.02S VSB 1
MORA           LGT SNOW  19  14  79 W7        30.02F WCI  10
CAMBRIDGE      LGT SNOW  19  12  73 W3        30.03S
RUSH CITY      FLURRIES  19  14  83 W5        30.02F WCI  12
MOOSE LAKE     LGT SNOW  19  12  73 CALM      29.97F
HINCKLEY       LGT SNOW  19  14  79 W6        30.00F WCI  11
CLOQUET        LGT SNOW  16  10  79 W6        29.95F WCI   7
MCGREGOR       CLOUDY    19  12  73 W7        29.98F WCI  10
$$
MNZ071>073-080-081-089-090-097-098-141900-
   Southwest Minnesota

CITY           SKY/WX    TMP DP  RH WIND       PRES   REMARKS
MONTEVIDEO     CLOUDY    25  21  86 N8        30.06S WCI  16
GRANITE FALLS  CLOUDY    27  22  80 NW10      30.07S WCI  17
CANBY          LGT SNOW  28  24  85 CALM      30.06F
MARSHALL       FLURRIES  27  22  81 NW9       30.05F WCI  18
REDWOOD FALLS  CLOUDY    25  52 100 MISG      30.05S
OLIVIA         CLOUDY    25  19  80 NW15      30.04S WCI  12
PIPESTONE      CLOUDY    30  25  80 N8        30.01F WCI  23
WINDOM           N/A     28  16  59 NW12G17   30.02F WCI  18
WORTHINGTON    CLOUDY    29  24  82 NW14      30.03S WCI  18
JACKSON        CLOUDY    28  21  74 MISG      30.03S
SLAYTON        CLOUDY    29  23  77 NW13      30.03S WCI  19
$$
MNZ065>067-074>077-082>085-091>093-141900-
   South Central Minnesota

CITY           SKY/WX    TMP DP  RH WIND       PRES   REMARKS
MANKATO        CLOUDY    21  17  84 CALM      30.05S
NEW ULM        CLOUDY    21  18  86 NW8       30.04F WCI  12
ST JAMES       CLOUDY    25  19  80 W10       30.05F WCI  15
FAIRMONT       CLOUDY    25  19  80 NW8       30.05S WCI  16
GLENCOE        CLOUDY    22  19  87 W5        30.03F WCI  16
FARIBAULT      CLOUDY    19  16  86 S3        30.04F
OWATONNA       CLOUDY    21  18  86 SW7       30.02F WCI  13
WASECA         CLOUDY    21  19  93 SW6       30.05F WCI  14
ALBERT LEA     CLOUDY    21  16  79 NW5       30.03R WCI  15
$$
MNZ078>079-086>088-094>096-141900-
   Southeast Minnesota

CITY           SKY/WX    TMP DP  RH WIND       PRES   REMARKS
ROCHESTER      SUNNY     22  15  75 SW6       30.02F WCI  14
6HR MIN TEMP:   6; 6HR MAX TEMP:  25;

RED WING       CLOUDY    25  14  63 SW7       30.03F WCI  17
STANTON        CLOUDY    23  17  79 W7        30.02F WCI  14
DODGE CENTER   MOSUNNY   21  18  86 SW7       30.01F WCI  13
WINONA           N/A     28  14  54 SW5       30.06F WCI  23
AUSTIN         CLOUDY    21  16  79 W3        30.03S
PRESTON        MOSUNNY   23  13  66 S7        30.02F WCI  15
$$
ABBREVIATIONS USED IN REMARKS
   TC - TEMPERATURES IN CELSIUS
  WCI - WIND CHILL INDEX
   HX - HEAT INDEX
  VSB - VISIBILITY
$$




USA.gov is the U.S. government's official web portal to all federal, state and local government web resources and services.